Station TRDF1 - 8721604 - Trident Pier, FL Image indicating link to RSS feed of recent meteorological observations for station TRDF1


Conditions at TRDF1 as of
(1:00 am EDT)
0500 GMT on 06/14/2024:
     

Click on the graph icon in the table below to see a time series plot of the last five days of that observation.

5-day plot - Wind Direction Wind Direction (WDIR): SW ( 220 deg true )
5-day plot - Wind Speed Wind Speed (WSPD): 7.0 kts
5-day plot - Wind Gust Wind Gust (GST): 8.9 kts
5-day plot - Atmospheric Pressure Atmospheric Pressure (PRES):29.87 in
5-day plot - Pressure Tendency Pressure Tendency (PTDY):+0.01 in ( Rising )
5-day plot - Air Temperature Air Temperature (ATMP): 78.8 °F
5-day plot - Water Temperature Water Temperature (WTMP): 85.6 °F
5-day plot - Wind Speed at 10 Meters Wind Speed at 10 meters (WSPD10M): 7.8 kts
5-day plot - Wind Speed at 20 Meters Wind Speed at 20 meters (WSPD20M): 7.8 kts
5-day plot -  Wind Speed, Wind Gust and Atmospheric Pressure Combined plot of Wind Speed, Gust, and Air Pressure
NOS Water Level Observation Network Water Level
Previous observations
TIME
(EDT)
5-day plot - Wind Direction
WDIR
 
5-day plot - Wind Speed
WSPD
kts
5-day plot - Wind Gust
GST
kts
5-day plot - Wave Height
WVHT
ft
5-day plot - Dominant Wave Period
DPD
sec
5-day plot - Average Wave Period
APD
sec
5-day plot - Mean Wave Direction
MWD
 
5-day plot - Atmospheric Pressure
PRES
in
5-day plot - Pressure Tendency
PTDY
in
5-day plot - Air Temperature
ATMP
°F
5-day plot - Water Temperature
WTMP
°F
5-day plot - Dew Point
DEWP
°F
5-day plot - Salinity
SAL
psu
5-day plot - Visibility
VIS
nmi
5-day plot - Tide (above MLLW)
TIDE
ft
2024-06-14 12:54 am SW 7.0 12.0----29.87- 78.8 85.5----
2024-06-14 12:48 am SW 9.9 12.0----29.87- 78.6 85.6----
2024-06-14 12:42 am SW 6.0 8.0----29.88- 78.8 85.8----
2024-06-14 12:36 amSSW 7.0 9.9----29.88- 79.2 85.8----
2024-06-14 12:30 am SW 8.0 9.9----29.88- 79.2 85.6----
2024-06-14 12:24 amSSW 9.9 11.1----29.88- 79.2 85.6----
2024-06-14 12:18 amSSW 8.9 12.0----29.88- 79.3 85.8----
2024-06-14 12:12 amSSW 9.9 13.0----29.88- 79.3 85.6----
2024-06-14 12:06 amSSW 9.9 13.0----29.89- 79.5 85.3----
2024-06-14 12:00 amSSW 8.9 11.1----29.89+0.04 79.2 85.3----
2024-06-13 11:54 pm S 8.0 9.9----29.89- 78.6 84.9----
2024-06-13 11:48 pm S 6.0 7.0----29.89- 78.6 85.1----
2024-06-13 11:42 pm S 6.0 8.0----29.89- 78.6 85.3----
2024-06-13 11:36 pmSSE 6.0 8.0----29.89- 78.4 85.5----
2024-06-13 11:30 pmSSE 5.1 6.0----29.89- 78.4 85.3----
2024-06-13 11:24 pmESE 4.1 5.1----29.89- 78.1 84.9----
2024-06-13 11:18 pm SE 1.9 2.9----29.89- 78.1 84.9----
2024-06-13 11:12 pm- 0.0 2.9----29.89- 78.1 84.9----
2024-06-13 11:06 pmNNW 1.9 2.9----29.89- 78.3 85.1----
2024-06-13 11:00 pm E 1.0 2.9----29.88+0.02 78.1 85.1----
2024-06-13 10:54 pmESE 1.9 5.1----29.87- 77.9 85.1----
2024-06-13 10:48 pmESE 5.1 8.0----29.87- 77.9 84.9----
2024-06-13 10:42 pmESE 6.0 7.0----29.87- 77.5 84.9----
2024-06-13 10:36 pm NE 2.9 5.1----29.87- 77.5 85.1----
2024-06-13 10:30 pm N 4.1 4.1----29.87- 77.7 85.3----
2024-06-13 10:24 pmENE 1.9 1.9----29.87- 77.4 85.5----
2024-06-13 10:18 pmNNE 1.9 4.1----29.87- 77.5 85.6----
2024-06-13 10:12 pmNNE 4.1 4.1----29.87- 77.7 85.6----
2024-06-13 10:06 pm NE 2.9 2.9----29.86- 77.7 85.6----
2024-06-13 10:00 pm E 1.9 2.9----29.86+0.00 77.7 85.6----
2024-06-13 09:54 pm E 2.9 2.9----29.86- 78.1 85.6----
2024-06-13 09:48 pmENE 1.9 4.1----29.86- 78.1 85.6----
2024-06-13 09:42 pmENE 2.9 4.1----29.86- 77.9 85.5----
2024-06-13 09:36 pm NE 1.9 1.9----29.86- 77.9 85.5----
2024-06-13 09:30 pmENE 1.9 1.9----29.86- 77.9 85.5----
2024-06-13 09:24 pm NE 1.9 2.9----29.85- 78.1 85.3----
2024-06-13 09:18 pmNNE 1.9 2.9----29.85- 78.1 84.6----
2024-06-13 09:12 pm NE 2.9 2.9----29.85- 77.9 84.7----
2024-06-13 09:06 pmENE 1.9 4.1----29.85- 78.1 85.1----
2024-06-13 09:00 pm NE 2.9 4.1----29.85+0.01 78.1 85.5----
2024-06-13 08:54 pm NE 2.9 4.1----29.85- 78.1 86.0----
2024-06-13 08:48 pm NE 2.9 4.1----29.86- 78.4 86.2----
2024-06-13 08:42 pm NE 2.9 2.9----29.86- 78.4 86.4----
2024-06-13 08:36 pmENE 1.9 1.9----29.86- 78.6 86.2----
2024-06-13 08:30 pm E 1.9 1.9----29.86- 78.8 86.2----
2024-06-13 08:24 pm- 0.0 1.9----29.86- 78.8 86.0----
2024-06-13 08:18 pmNNE 1.9 4.1----29.86- 79.0 85.8----
2024-06-13 08:12 pm N 2.9 4.1----29.87- 79.3 85.8----
2024-06-13 08:06 pm NE 2.9 2.9----29.86- 79.3 85.6----
2024-06-13 08:00 pm NE 1.9 1.9----29.86+0.02 79.3 85.6----
2024-06-13 07:54 pm E 1.0 2.9----29.85- 79.5 85.8----
2024-06-13 07:48 pm E 2.9 4.1----29.86- 79.5 86.0----
2024-06-13 07:42 pm E 1.9 2.9----29.86- 79.5 86.0----
2024-06-13 07:36 pm E 2.9 4.1----29.87- 79.5 86.2----
2024-06-13 07:30 pmENE 2.9 4.1----29.87- 79.5 86.4----
2024-06-13 07:24 pm E 2.9 6.0----29.87- 79.3 86.0----
2024-06-13 07:00 pmESE 6.0 8.9----29.85+0.00- 86.5----
2024-06-13 06:54 pm SE 5.1 8.9----29.85-- 86.5----
2024-06-13 06:48 pmNNW 1.9 5.1----29.85-------
2024-06-13 06:42 pm NW 2.9 5.1----29.85-------
2024-06-13 06:36 pm NW 2.9 4.1----29.85-------
2024-06-13 06:30 pm N 2.9 4.1----29.85- 84.2 86.9----
2024-06-13 06:24 pm N 1.9 4.1----29.85- 83.8 86.9----
2024-06-13 06:18 pm N 2.9 6.0----29.85- 83.5 86.9----
2024-06-13 06:12 pm N 4.1 6.0----29.85- 83.8 86.7----
2024-06-13 06:06 pmNNW 2.9 5.1----29.84- 83.3 86.7----
2024-06-13 06:00 pmNNW 2.9 5.1----29.84-0.03- 86.7----
2024-06-13 05:54 pmNNW 5.1 6.0----29.84-- 86.7----
2024-06-13 05:48 pmNNW 5.1 8.0----29.84- 81.7 86.7----
2024-06-13 05:42 pmNNW 6.0 8.9----29.85- 81.7 86.5----
2024-06-13 05:36 pmNNW 8.0 11.1----29.84- 81.5 86.5----
2024-06-13 05:30 pmNNW 6.0 8.9----29.84- 81.3 86.7----
2024-06-13 05:24 pmNNW 8.0 9.9----29.84- 81.0 86.5----
2024-06-13 05:18 pm NW 6.0 8.0----29.84-- 86.7----
2024-06-13 05:12 pmNNW 4.1 6.0----29.83-- 86.9----
2024-06-13 05:06 pmWNW 5.1 7.0----29.83-- 86.9----
2024-06-13 05:00 pm NW 5.1 8.9----29.83-0.05 81.3 86.9----
2024-06-13 04:54 pm NW 6.0 8.0----29.83- 82.0 86.9----
2024-06-13 04:48 pm NW 4.1 7.0----29.84- 82.9 86.9----
2024-06-13 04:42 pm NW 6.0 9.9----29.85- 83.5 86.9----
2024-06-13 04:36 pm W 5.1 7.0----29.85- 83.7 86.9----
2024-06-13 04:30 pm W 6.0 8.0----29.85- 84.0 86.5----
2024-06-13 04:24 pm W 2.9 4.1----29.85- 84.7 86.4----
2024-06-13 04:18 pmWSW 4.1 7.0----29.85-- 86.5----
2024-06-13 04:12 pm S 7.0 8.9----29.85-- 86.5----
2024-06-13 04:06 pm S 7.0 8.0----29.85-- 86.5----
2024-06-13 04:00 pm S 6.0 8.0----29.86-0.02 82.8 86.7----
2024-06-13 03:54 pm S 8.0 8.9----29.86- 81.9 86.7----
2024-06-13 03:48 pm S 7.0 8.9----29.86- 82.0 86.7----
2024-06-13 03:42 pm S 5.1 6.0----29.86- 82.0 86.7----
2024-06-13 03:36 pm S 5.1 7.0----29.87- 82.6 86.7----
2024-06-13 03:30 pm S 5.1 8.0----29.87-- 86.7----
2024-06-13 03:24 pm S 6.0 8.9----29.86-- 86.5----
2024-06-13 03:18 pm S 7.0 8.9----29.85- 82.6 86.4----
2024-06-13 03:12 pm S 6.0 8.0----29.85- 81.9 86.4----
2024-06-13 03:06 pm S 7.0 11.1----29.86- 80.6 86.2----
2024-06-13 03:00 pm S 8.9 12.0----29.87- 80.1 86.0----
2024-06-13 02:54 pm S 11.1 13.0----29.87- 79.3 85.8----
2024-06-13 02:48 pm S 11.1 14.0----29.88-- 85.8----
2024-06-13 02:42 pmSSE 8.9 12.0----29.88-- 85.6----
2024-06-13 02:36 pmSSE 9.9 12.0----29.88-- 85.5----
2024-06-13 02:30 pm S 11.1 13.0----29.89-- 85.5----
2024-06-13 02:24 pm S 9.9 13.0----29.89-- 85.5----
2024-06-13 02:18 pmSSE 8.0 12.0----29.89- 81.3 85.6----
2024-06-13 02:12 pmSSE 11.1 14.0----29.89- 81.0 85.6----
2024-06-13 02:06 pmSSE 8.0 11.1----29.89- 82.0 85.3----
2024-06-13 02:00 pmSSE 8.0 11.1----29.88+0.00- 85.3----
2024-06-13 01:54 pmSSE 7.0 11.1----29.88-- 85.3----
2024-06-13 01:48 pm SE 5.1 9.9----29.88-- 85.3----
2024-06-13 01:42 pmSSE 8.0 11.1----29.88-- 85.1----
2024-06-13 01:36 pmSSE 7.0 9.9----29.88-- 84.9----
2024-06-13 01:30 pm--------- 82.0 84.9----
2024-06-13 01:24 pm--------- 82.4 84.9----
2024-06-13 01:18 pmSSE 6.0 8.0----29.89- 82.0 84.9----
2024-06-13 01:12 pmSSE 5.1 9.9----29.88- 82.4 84.9----
2024-06-13 01:06 pmSSE 7.0 8.9----29.88- 82.6 84.9----
2024-06-13 01:00 pm-------29.88-0.02 81.7 84.9----
2024-06-13 12:54 pm-------29.88- 81.1 84.7----
2024-06-13 12:48 pm S 7.0 9.9----29.88- 82.6-----
2024-06-13 12:42 pmSSE 7.0 9.9----29.88- 81.5-----
2024-06-13 12:36 pm S 7.0 9.9----29.88- 82.0-----
2024-06-13 12:30 pm-------29.89- 82.0 85.3----
2024-06-13 12:24 pm-------29.88- 82.4 85.5----
2024-06-13 12:18 pm SE 6.0 9.9----29.88-- 85.1----
2024-06-13 12:12 pmSSE 6.0 8.9----29.88-- 84.7----
2024-06-13 12:06 pm S 8.0 9.9----29.88-- 84.9----
2024-06-13 12:00 pm S 6.0 8.9------ 82.2 84.9----
2024-06-13 11:54 amSSE 6.0 8.0------ 81.3 85.5----
2024-06-13 11:48 amSSE 6.0 8.0----29.88-- 85.6----
2024-06-13 11:42 amSSE 7.0 8.9----29.88-- 85.6----
2024-06-13 11:36 am S 6.0 8.0----29.88-- 85.6----
2024-06-13 11:30 amSSW 8.9 12.0----29.87-- 85.3----
2024-06-13 11:24 am SW 7.0 9.9----29.88-- 85.1----
2024-06-13 11:18 am SW 7.0 9.9----29.88- 81.7 85.5----
2024-06-13 11:12 amSSW 7.0 11.1----29.88- 81.5 85.6----
2024-06-13 11:06 amSSW 7.0 8.0----29.89- 81.0 85.5----
2024-06-13 11:00 amSSW 7.0 8.9----29.89+0.02 81.0 85.5----
2024-06-13 10:54 amWSW 8.0 9.9----29.89- 80.6 85.5----
2024-06-13 10:48 amWSW 5.1 7.0----29.89- 80.8 86.0----
2024-06-13 10:42 amWSW 5.1 7.0----29.89- 80.8 86.0----
2024-06-13 10:36 amWSW 2.9 7.0----29.89- 80.6 86.0----
2024-06-13 10:30 amWSW 5.1 6.0----29.89-- 86.0----
2024-06-13 10:24 amWSW 5.1 8.0----29.89-- 86.0----
2024-06-13 10:18 amWSW 6.0 8.0----29.89- 79.7 85.8----
2024-06-13 10:12 am SW 7.0 8.0----29.89- 79.7 85.8----
2024-06-13 10:06 amWSW 7.0 8.0----29.90- 79.7 85.8----
2024-06-13 10:00 amWSW 6.0 8.9----29.90+0.03 79.3 86.0----
2024-06-13 09:54 amWSW 7.0 9.9----29.90- 79.3 86.0----
2024-06-13 09:48 am W 7.0 9.9----29.90- 79.3 86.2----
2024-06-13 09:42 amWSW 7.0 9.9----29.90- 79.3 86.0----
2024-06-13 09:36 amWSW 8.0 9.9----29.90- 79.2 86.0----
2024-06-13 09:30 amWSW 8.0 13.0----29.90- 79.0 86.0----
2024-06-13 09:24 amWSW 8.0 12.0----29.90- 78.8 86.0----
2024-06-13 09:18 am SW 9.9 12.0----29.89- 78.8 86.2----
2024-06-13 09:12 amWSW 8.0 13.0----29.90- 78.6 86.0----
2024-06-13 09:06 am SW 8.9 14.0----29.90- 78.4 86.0----
2024-06-13 09:00 am SW 13.0 15.0----29.90+0.05 78.4 86.0----
2024-06-13 08:54 am SW 11.1 13.0----29.89- 78.4 86.0----
2024-06-13 08:48 am SW 11.1 13.0----29.89- 78.4 85.8----
2024-06-13 08:42 am SW 9.9 13.0----29.89- 78.4 85.8----
2024-06-13 08:36 am SW 12.0 15.9----29.89- 78.3 86.0----
2024-06-13 08:30 amSSW 13.0 17.1----29.89- 78.1 86.2----
2024-06-13 08:24 am SW 12.0 15.9----29.88- 78.3 86.2----
2024-06-13 08:18 am SW 12.0 15.0----29.88- 78.3 86.2----
2024-06-13 08:12 am SW 13.0 15.9----29.88- 78.3 86.0----
2024-06-13 08:06 am SW 11.1 15.0----29.87- 78.3 86.0----
2024-06-13 08:00 am SW 9.9 13.0----29.87+0.03 78.1 86.2----
2024-06-13 07:54 am SW 9.9 15.0----29.87- 77.9 86.0----
2024-06-13 07:48 am SW 12.0 15.9----29.87-- 86.2----
2024-06-13 07:42 am SW 9.9 15.0----29.87-- 86.2----
2024-06-13 07:36 am SW 12.0 14.0----29.87-- 86.2----
2024-06-13 07:30 am SW 11.1 14.0----29.87- 77.7 86.2----
2024-06-13 07:24 am SW 9.9 14.0----29.86- 77.7 86.2----
2024-06-13 07:18 am SW 11.1 14.0----29.86- 77.5 86.2----
2024-06-13 07:12 am SW 8.9 12.0----29.86- 77.7 86.2----
2024-06-13 07:06 amWSW 11.1 14.0----29.86- 77.5 86.2----
2024-06-13 07:00 amWSW 9.9 12.0----29.86+0.02 77.7 86.2----
2024-06-13 06:54 am SW 8.0 12.0----29.86- 77.5 86.2----
2024-06-13 06:48 am SW 9.9 13.0----29.86- 77.5 86.0----
2024-06-13 06:42 am SW 11.1 14.0----29.86- 77.5 86.0----
2024-06-13 06:36 am SW 9.9 13.0----29.86- 77.5 86.0----
2024-06-13 06:30 am SW 9.9 12.0----29.86- 77.5 86.0----
2024-06-13 06:24 am SW 8.0 12.0----29.86- 77.5 86.2----
2024-06-13 06:18 am SW 8.9 13.0----29.85- 77.5 86.2----
2024-06-13 06:12 amWSW 8.9 14.0----29.85- 77.7 86.4----
2024-06-13 06:06 am SW 8.0 12.0----29.85- 77.5 86.4----
2024-06-13 06:00 am SW 8.9 12.0----29.85-0.01 77.4 86.4----
2024-06-13 05:54 am SW 8.9 18.1----29.85- 77.4 86.4----
2024-06-13 05:48 am SW 15.0 18.1----29.85- 77.2 86.5----
2024-06-13 05:42 am SW 14.0 18.1----29.85- 77.4 86.5----
2024-06-13 05:36 am SW 14.0 17.1----29.85- 77.4 86.5----
2024-06-13 05:30 am SW 15.9 18.1----29.84- 77.4 86.4----
2024-06-13 05:24 am SW 14.0 19.0----29.85- 77.5 86.4----
2024-06-13 05:18 am SW 13.0 17.1----29.84- 77.7 86.2----
2024-06-13 05:12 am SW 11.1 15.9----29.85- 77.7 86.2----
2024-06-13 05:06 am SW 12.0 15.0----29.84- 77.5 86.4----
2024-06-13 05:00 am SW 9.9 17.1----29.84-0.02 77.9 86.4----
2024-06-13 04:54 am SW 12.0 19.0----29.84- 77.7 86.4----
2024-06-13 04:48 am SW 11.1 17.1----29.84- 77.7 86.4----
2024-06-13 04:42 am SW 15.0 19.0----29.84- 77.7 86.4----
2024-06-13 04:36 am SW 15.0 19.0----29.84- 77.5 86.2----
2024-06-13 04:30 am SW 13.0 21.0----29.84- 77.5 86.4----
2024-06-13 04:24 am SW 17.1 20.0----29.84- 77.5 86.4----
2024-06-13 04:18 am SW 13.0 19.0----29.84- 77.5 86.4----
2024-06-13 04:12 am SW 15.0 19.0----29.84- 77.5 86.2----
2024-06-13 04:06 am SW 15.9 20.0----29.84- 77.5 86.2----
2024-06-13 04:00 am SW 13.0 21.0----29.84-0.04 77.7 86.2----
2024-06-13 03:54 am SW 15.9 19.0----29.84- 77.5 86.2----
2024-06-13 03:48 am SW 14.0 18.1----29.84- 77.5 86.0----
2024-06-13 03:42 am SW 15.9 20.0----29.84- 77.5 86.0----
2024-06-13 03:36 am SW 13.0 17.1----29.85- 77.5 86.0----
2024-06-13 03:30 am SW 15.9 20.0----29.85- 77.2 85.8----
2024-06-13 03:24 am SW 15.9 20.0----29.85- 77.2 85.5----
2024-06-13 03:18 am SW 13.0 15.9----29.85- 77.4 85.6----
2024-06-13 03:12 am SW 14.0 18.1----29.85- 77.4 85.6----
2024-06-13 03:06 am SW 14.0 15.9----29.85- 77.4 85.8----
2024-06-13 03:00 am SW 12.0 15.0----29.86-0.01 77.4 86.0----
2024-06-13 02:54 am SW 12.0 13.0----29.86- 77.2 86.0----
2024-06-13 02:48 am SW 9.9 12.0----29.86-- 86.0----
2024-06-13 02:42 am SW 8.0 11.1----29.86-- 85.8----
2024-06-13 02:36 am SW 8.9 13.0----29.86-- 85.8----
2024-06-13 02:30 am SW 12.0 14.0----29.86- 76.8 86.0----
2024-06-13 02:24 am SW 8.9 12.0----29.86- 77.0 86.2----
2024-06-13 02:18 am SW 9.9 13.0----29.86- 77.2 86.2----
2024-06-13 02:12 am SW 11.1 13.0----29.86- 77.2 86.2----
2024-06-13 02:06 am SW 12.0 17.1----29.86- 77.5 86.2----
2024-06-13 02:00 am SW 11.1 15.0----29.86+0.00------
2024-06-13 01:54 am SW 8.0 12.0----29.87-------
2024-06-13 01:48 am-------29.87- 78.1 85.8----
2024-06-13 01:42 am-------29.87- 78.1 85.8----
2024-06-13 01:36 am-------29.87- 77.9 86.0----
2024-06-13 01:30 am SW 9.9 13.0----29.87- 77.9 86.0----
2024-06-13 01:24 am SW 8.9 11.1----29.87- 77.9 86.0----
2024-06-13 01:18 am SW 8.9 9.9----29.87- 77.7 86.2----
2024-06-13 01:12 am SW 8.9 11.1----29.87- 77.2 86.0----
2024-06-13 01:06 am SW 7.0 8.9----29.88- 77.2 86.0----
2024-06-13 01:00 am-------29.88- 77.0 86.2----
2024-06-13 12:54 am-------29.87- 77.0 86.2----